AirNav   Pilot Hours Calculator
 
 927 users online  

34R Hallettsville Municipal Airport
Hallettsville, Texas, USA

GOING TO HALLETTSVILLE?


FAA INFORMATION EFFECTIVE 10 OCTOBER 2019

Location

FAA Identifier: 34R
Lat/Long: 29-23-23.8500N 096-57-21.8150W
29-23.397500N 096-57.363583W
29.3899583,-96.9560597
(estimated)
Elevation: 277.7 ft. / 84.6 m (surveyed)
Variation: 07E (1985)
From city: 3 miles S of HALLETTSVILLE, TX
Time zone: UTC -5 (UTC -6 during Standard Time)
Zip code: 77964

Airport Operations

Airport use: Open to the public
Activation date: 03/1967
Control tower: no
ARTCC: HOUSTON CENTER
FSS: MONTGOMERY COUNTY FLIGHT SERVICE STATION
FOR FP FILING CALL CXO FSS 1-800-833-5602
NOTAMs facility: CXO (NOTAM-D service available)
Attendance: UNATNDD
Wind indicator: lighted
Segmented circle: yes
Lights: DUSK-DAWN. MIRL RY 17/35 PRESET LOW INTST; TO INCR INTST ACTVT - CTAF.
Beacon: white-green (lighted land airport)
Operates sunset to sunrise.

Airport Communications

CTAF: 122.9

Nearby radio navigation aids

VOR radial/distance  VOR name  Freq  Var
VCTr356/29.4VICTORIA VOR/DME109.0006E
ELAr236/37.1EAGLE LAKE VOR/DME116.4008E
IDUr203/39.7INDUSTRY VORTAC110.2008E

Airport Services

Fuel available: 100LL
24 HR SELF-SERVE CREDIT CARD OPN FOR FUEL.
Parking: tiedowns
Bottled oxygen: NONE
Bulk oxygen: NONE

Runway Information

Runway 17/35

Dimensions: 3210 x 60 ft. / 978 x 18 m
Surface: asphalt, in fair condition
Weight bearing capacity: 
Single wheel: 7.0
Runway edge lights: medium intensity
RUNWAY 17  RUNWAY 35
Latitude: 29-23.662333N29-23.132667N
Longitude: 096-57.368833W096-57.358333W
Elevation: 277.7 ft.262.4 ft.
Traffic pattern: leftleft
Runway heading: 172 magnetic, 179 true352 magnetic, 359 true
Markings: basic, in fair conditionbasic, in fair condition
Touchdown point: yes, no lightsyes, no lights
Obstructions: 42 ft. trees, 731 ft. from runway, 169 ft. right of centerline, 12:1 slope to clear25 ft. trees, 406 ft. from runway, 64 ft. right of centerline, 8:1 slope to clear

Airport Ownership and Management from official FAA records

Ownership: Publicly-owned
Owner: CITY OF HALLETTSVILLE
101 N MAIN
HALLETTSVILLE, TX 77964
Phone 361-798-3681
Manager: OTTO CERVEWKA
101 N MAIN
HALLETTSVILLE, TX 77964
Phone 361-798-2201
DIRECTOR OF PUBLIC WORKS.

Airport Operational Statistics

Aircraft based on the field: 7
Single engine airplanes: 7
    
Aircraft operations: avg 40/week *
67% local general aviation
33% transient general aviation
* for 12-month period ending 25 January 2017

Additional Remarks

FOR CD CTC HOUSTON ARTCC AT 281-230-5622.

Instrument Procedures

There are no published instrument procedures at 34R.

Some nearby airports with instrument procedures:

T85 - Yoakum Municipal Airport (11 nm SW)
26R - Jackson County Airport (30 nm SE)
3T5 - Fayette Regional Air Center Airport (31 nm N)
KVCT - Victoria Regional Airport (32 nm S)
KELA - Eagle Lake Airport (35 nm E)
 
Loc | Ops | Rwys | IFR | FBO | Links
Com | Nav | Svcs | Stats | Notes
Area around 34R (Hallettsville Municipal Airport)
 
Road maps at: MapQuest Bing Google
 
Aerial photo
WARNING: Photo may not be current or correct
Aerial photo of 34R (Hallettsville Municipal Airport)
Do you have a better or more recent aerial photo of Hallettsville Municipal Airport that you would like to share? If so, please send us your photo.

 
Sectional chart

 
Airport distance calculator
Flying to Hallettsville Municipal Airport? Find the distance to fly.

From to 34R

Sunrise and sunset
Times for 19-Oct-2019
 Local
(UTC-5)
 Zulu
(UTC)
Morning civil twilight07:0912:09
Sunrise07:3312:33
Sunset18:5323:53
Evening civil twilight19:1700:17

Current date and time
Zulu (UTC)  19-Oct-2019 21:19:28
Local (UTC-5)  19-Oct-2019 16:19:28
 
METAR
K66R 
27nm NE 
192055Z AUTO 00000KT 10SM CLR 33/17 A2971 RMK AO2 T03300168
KT20 
28nm W 
192055Z AUTO 00000KT 10SM CLR 33/20 A2971 RMK AO2 T03310199
K3T5 
31nm N 
192055Z AUTO 23006KT 190V270 10SM CLR 34/19 A2969 RMK AO2 T03360189
KVCT 
31nm S 
192051Z 18005KT 10SM FEW050 33/21 A2971 RMK AO2 SLP058 T03330206 56023
KELA 
35nm E 
192055Z AUTO 22004KT 10SM CLR 34/22 A2971 RMK AO2 T03370222
KARM 
43nm E 
192055Z AUTO 17008KT 7SM SCT043 SCT050 BKN055 31/21 A2972 RMK AO2 T03090205
KPKV 
46nm S 
192055Z AUTO 20009KT 10SM SCT100 32/23 A2972 RMK AO2 T03240231
KGYB 
47nm N 
192055Z AUTO 26005KT 10SM CLR 33/17 A2971 RMK AO2 T03320167
TAF
KVCT 
31nm S 
191740Z 1918/2018 20009KT P6SM SCT025 OVC100 FM192200 17007KT P6SM SCT045 OVC150 TEMPO 2003/2006 BKN025 OVC200 FM200600 VRB03KT P6SM OVC020 TEMPO 2010/2014 3SM BR FM201600 17007KT P6SM SCT025
NOTAMs
Click for the latest NOTAMs
NOTAMs are issued by the DoD/FAA and will open in a separate window not controlled by AirNav.

 

 
 

FBO, Fuel Providers, and Aircraft Ground Support

  
 Business Name 
 
 Contact 
 
 Services / Description 
 
Fuel Prices
 
Comments
  
Hallettsville Municipal Airport 361-798-3681
no information available

If you are affiliated with Hallettsville Municipal Airport and would like to show here your services, contact info, web link, logo, and more, click here
100LL
SS $4.20 
 Updated 15-Oct-2019
 
   2 read write
SS=Self service
Update Fuel Prices
 

Would you like to see your business listed on this page?

 If your business provides an interesting product or service to pilots, flight crews, aircraft, or users of the Hallettsville Municipal Airport, you should consider listing it here.  To start the listing process, click on the button below
 
Add a business
 

Other Pages about Hallettsville Municipal Airport

Update a link
 
Copyright © AirNav, LLC. All rights reserved. Privacy Policy  Contact